This is the latest recevied weather packets stored in our database for station/object EA3RCF. If no packets are shown the sender has not sent any weather packets the latest 10 day(s).
| Time | Temp. | Humidity | Pressure | Rain* | Wind** | Luminosity | Snow |
|---|---|---|---|---|---|---|---|
| 1777376307 | 22.22° C | 69% | 1014 hPa | 0 mm | - | - | - |
| 1777376007 | 22.22° C | 69% | 1014.1 hPa | 0 mm | - | - | - |
| 1777375716 | 22.22° C | 69% | 1014.1 hPa | 0 mm | - | - | - |
| 1777375397 | 22.22° C | 68% | 1014.2 hPa | 0 mm | - | - | - |
| 1777375098 | 22.22° C | 68% | 1014.2 hPa | 0 mm | - | - | - |
| 1777374814 | 22.22° C | 70% | 1014.3 hPa | 0 mm | - | - | - |
| 1777374510 | 22.22° C | 68% | 1014.5 hPa | 0 mm | - | - | - |
| 1777374219 | 22.22° C | 71% | 1014.4 hPa | 0 mm | - | - | - |
| 1777373900 | 22.22° C | 70% | 1014.6 hPa | 0 mm | - | - | - |
| 1777373601 | 21.67° C | 70% | 1014.6 hPa | 0 mm | - | - | - |
| 1777373311 | 21.67° C | 73% | 1014.6 hPa | 0 mm | - | - | - |
| 1777373012 | 21.67° C | 71% | 1014.7 hPa | 0 mm | - | - | - |
| 1777372720 | 21.67° C | 72% | 1014.7 hPa | 0 mm | - | - | - |
| 1777372403 | 21.67° C | 73% | 1014.8 hPa | 0 mm | - | - | - |
| 1777372103 | 21.11° C | 75% | 1014.9 hPa | 0 mm | - | - | - |
| 1777371812 | 21.11° C | 78% | 1014.9 hPa | 0 mm | - | - | - |
| 1777371497 | 21.11° C | 80% | 1015 hPa | 0 mm | - | - | - |
| 1777371198 | 20.56° C | 92% | 1015.1 hPa | 0 mm | - | - | - |
| 1777370906 | 20° C | 95% | 1015.1 hPa | 0 mm | - | - | - |
| 1777370609 | 19.44° C | 95% | 1015.1 hPa | 0 mm | - | - | - |
| 1777370317 | 18.89° C | 95% | 1015.1 hPa | 0 mm | - | - | - |
| 1777369998 | 18.89° C | 95% | 1015.2 hPa | 0 mm | - | - | - |
| 1777369695 | 18.33° C | 95% | 1015.2 hPa | 0 mm | - | - | - |
| 1777369404 | 18.33° C | 95% | 1015.3 hPa | 0 mm | - | - | - |
| 1777369105 | 18.33° C | 95% | 1015.2 hPa | 0 mm | - | - | - |
* Rain latest hour (hover to see other rain measurements)
** Current wind speed in m/s (hover to see current wind gust speed)